Leadville, CO

8:56 PM MDT on July 20, 2017 (GMT -0600)
Lake County

Weather History for KLXV - April, 2013

Change the Weather History Date:

Tuesday, April 30, 2013

  Actual Average Record
Temperature  
Mean Temperature 45 °F -  
Max Temperature 55 °F 48 °F 65 °F (1992)
Min Temperature 34 °F 23 °F 11 °F (2011)
Degree Days  
Heating Degree Days 20 29  
Month to date heating degree days 1118 1018  
Since 1 July heating degree days 9970 10001  
Cooling Degree Days 0 0  
Month to date cooling degree days 0 0  
Year to date cooling degree days 0 0  
Moisture  
Dew Point 17 °F    
Average Humidity 33    
Maximum Humidity 45    
Minimum Humidity 21    
Precipitation  
Precipitation 0.00 in 0.04 in 0.30 in (1999)
Month to date precipitation 2.38 1.07  
Year to date precipitation 5.51 3.33  
Sea Level Pressure  
Sea Level Pressure 29.53 in    
Wind  
Wind Speed 10 mph (SW)    
Max Wind Speed 29 mph    
Max Gust Speed 43 mph    
Visibility 10 miles    
Events      
T = Trace of Precipitation, MM = Missing Value Source: NWS Daily Summary

Daily Weather History Graph

Daily Weather History Graph

Search for Another Location

Airport or City:

Trip Planner

Search our weather history database for the weather conditions in past years. The results will help you decide how hot, cold, wet, or windy it might be!

Date:

Astronomy

Apr. 30, 2013 Rise Set
Actual Time 6:07 AM MDT 7:57 PM MDT
Civil Twilight 5:38 AM MDT 8:26 PM MDT
Nautical Twilight 5:03 AM MDT 9:01 PM MDT
Astronomical Twilight 4:26 AM MDT 9:39 PM MDT
Moon 12:22 AM MDT (4/30) 10:40 AM MDT (4/30)
Length of Visible Light 14h 47m
Length of Day
13h 50m
Waning Gibbous, 69% of the Moon is Illuminated
Apr 30
Waning Gibbous
May 2
Last Quarter
May 9
New
May 17
First Quarter
May 24
Full

Hourly Weather History & Observations

Time (MDT) Temp. Windchill Dew Point Humidity Pressure Visibility Wind Dir Wind Speed Gust Speed Precip Events Conditions
12:53 AM 45.0 °F 43.5 °F 14.0 °F 29% 29.54 in 10.0 mi Variable 3.5 mph - N/A   Mostly Cloudy
1:53 AM 46.0 °F - 14.0 °F 28% 29.52 in 10.0 mi Calm Calm - N/A   Clear
2:53 AM 43.0 °F 40.3 °F 15.1 °F 32% 29.52 in 10.0 mi Variable 4.6 mph - N/A   Overcast
3:53 AM 39.9 °F 35.1 °F 17.1 °F 40% 29.51 in 10.0 mi ENE 6.9 mph - N/A   Partly Cloudy
4:53 AM 41.0 °F 37.1 °F 15.1 °F 35% 29.49 in 10.0 mi ENE 5.8 mph - N/A   Clear
5:53 AM 37.9 °F 30.9 °F 17.1 °F 43% 29.51 in 10.0 mi ENE 10.4 mph - N/A   Clear
6:53 AM 39.9 °F 34.5 °F 18.0 °F 41% 29.52 in 10.0 mi NE 8.1 mph - N/A   Clear
7:53 AM 46.9 °F - 17.1 °F 30% 29.50 in 10.0 mi NNE 8.1 mph - N/A   Clear
8:53 AM 50.0 °F - 16.0 °F 26% 29.52 in 10.0 mi North 4.6 mph - N/A   Mostly Cloudy
9:53 AM 51.1 °F - 15.1 °F 24% 29.50 in 10.0 mi West 17.3 mph 23.0 mph N/A   Scattered Clouds
10:53 AM 51.1 °F - 16.0 °F 25% 29.49 in 10.0 mi SSW 12.7 mph 20.7 mph N/A   Overcast
11:53 AM 54.0 °F - 18.0 °F 24% 29.47 in 10.0 mi SW 12.7 mph 31.1 mph N/A   Mostly Cloudy
12:05 PM 51.8 °F - 19.4 °F 28% 29.93 in 10.0 mi SSW 23.0 mph 34.5 mph N/A   Mostly Cloudy
12:53 PM 52.0 °F - 19.9 °F 28% 29.48 in 10.0 mi South 15.0 mph 28.8 mph N/A   Mostly Cloudy
1:01 PM 51.8 °F - 17.6 °F 26% 29.93 in 10.0 mi SW 12.7 mph 27.6 mph N/A   Overcast
1:53 PM 52.0 °F - 19.0 °F 27% 29.47 in 10.0 mi SSW 11.5 mph 24.2 mph N/A   Scattered Clouds
2:53 PM 54.0 °F - 21.0 °F 28% 29.49 in 10.0 mi SSW 17.3 mph 42.6 mph N/A   Mostly Cloudy
3:53 PM 51.1 °F - 25.0 °F 36% 29.52 in 10.0 mi WNW 18.4 mph 24.2 mph N/A   Mostly Cloudy
4:53 PM 54.0 °F - 17.1 °F 23% 29.47 in 10.0 mi WSW 11.5 mph 18.4 mph N/A   Scattered Clouds
5:53 PM 53.1 °F - 16.0 °F 23% 29.50 in 10.0 mi WSW 13.8 mph 20.7 mph N/A   Scattered Clouds
6:53 PM 52.0 °F - 12.9 °F 21% 29.50 in 10.0 mi WSW 10.4 mph 20.7 mph N/A   Scattered Clouds
7:53 PM 48.9 °F - 16.0 °F 27% 29.49 in 10.0 mi WSW 10.4 mph 19.6 mph N/A   Partly Cloudy
8:53 PM 46.9 °F - 18.0 °F 32% 29.49 in 10.0 mi SSW 3.5 mph - N/A   Mostly Cloudy
9:53 PM 39.0 °F 32.8 °F 19.9 °F 46% 29.54 in 10.0 mi ENE 9.2 mph - N/A   Mostly Cloudy
10:53 PM 41.0 °F 38.0 °F 21.9 °F 47% 29.50 in 10.0 mi Variable 4.6 mph - N/A   Mostly Cloudy
11:53 PM 43.0 °F 40.3 °F 18.0 °F 37% 29.45 in 10.0 mi Variable 4.6 mph - N/A   Overcast